Regional Weather Roundup
Issued by NWS Little Rock, AR

Home | Current Version | Previous Version | Graphics & Text | Print | Product List | Glossary On
Versions: 1 2 3 4 5 6 7 8 9 10 11 12 13 14 15 16 17 18 19 20 21 22 23 24 25 26 27 28 29 30 31 32 33 34 35 36 37 38 39 40 41 42 43 44 45 46 47 48 49
000
ASUS44 KLZK 290705
RWRLZK

WEATHER ROUNDUP FOR ARKANSAS
NATIONAL WEATHER SERVICE LITTLE ROCK AR
100 AM CST THU JAN 29 2015

NOTE: "FAIR" INDICATES FEW OR NO CLOUDS BELOW 12,000 FEET WITH NO
SIGNIFICANT WEATHER AND/OR OBSTRUCTIONS TO VISIBILITY.

ARZ001-003-010-029-290800-
NORTHWEST ARKANSAS

CITY           SKY/WX    TMP DP  RH WIND       PRES   REMARKS
FAYETTEVILLE   MOCLDY    60  42  51 SW13      29.95F
FORT SMITH     PTCLDY    50  42  74 CALM      29.99R
HARRISON       MOCLDY    64  42  44 SW15G29   29.91F
BENTONVILLE    CLOUDY    57  39  51 SW9       29.96R
ROGERS         CLOUDY    60  41  49 SW15      29.94S
SILOAM SPGS    CLOUDY    57  37  47 SW9       29.97R
HIGHFILL       CLOUDY    59  41  51 SW10      29.94S
$$

ARZ004-005-016-290800-
NORTH CENTRAL ARKANSAS

CITY           SKY/WX    TMP DP  RH WIND       PRES   REMARKS
BATESVILLE     PTCLDY    55  39  54 S15G24    29.95F
FLIPPIN        MOCLDY    57  39  51 SW7       29.90S
MTN HOME       MOCLDY    56  42  59 SW6       29.89F
$$

ARZ040-041-290800-
WEST CENTRAL ARKANSAS

CITY           SKY/WX    TMP DP  RH WIND       PRES   REMARKS
MENA           PTCLDY    63  45  51 CALM      30.04S
MOUNT IDA      PTCLDY    64  43  46 VRB7      29.99F
$$

ARZ009-017-025-026-028-290800-
NORTHEAST ARKANSAS

CITY           SKY/WX    TMP DP  RH WIND       PRES   REMARKS
CORNING        FAIR      54  39  58 SW22G29   29.94F
JONESBORO      MOCLDY    55  40  56 S22G31    29.97F
NEWPORT        CLOUDY    53  42  66 S12G20    29.99F
WALNUT RIDGE   MOCLDY    48  37  66 S14       29.95F
BLYTHEVILLE    MOCLDY    54  37  52 S15       30.00F
$$

ARZ022-023-033-042-044-290800-
CENTRAL ARKANSAS

CITY           SKY/WX    TMP DP  RH WIND       PRES   REMARKS
LITTLE ROCK    PTCLDY    59  40  49 SW17G24   30.01F
N LITTLE ROCK    N/A     58  45  62 S12G20    30.01F
JACKSONVILLE   MOCLDY    56  42  59 SW8       30.01F
SEARCY         PTCLDY    55  43  63 S8        30.02F
HOT SPRINGS    CLOUDY    61  43  51 SW8       30.04S
RUSSELLVILLE   MOCLDY    45  40  82 CALM      29.97F
CLINTON        FAIR      37  36  93 CALM      30.00F
$$

ARZ036-290800-
EAST ARKANSAS

CITY           SKY/WX    TMP DP  RH WIND       PRES   REMARKS
WEST MEMPHIS   MOCLDY    53  39  59 S16       30.04F
$$

ARZ050-053-066-070-073-290800-
SOUTHWEST ARKANSAS

CITY           SKY/WX    TMP DP  RH WIND       PRES   REMARKS
ARKADELPHIA    FAIR      45  44  96 CALM      30.07S
CAMDEN         CLEAR     57  39  51 MISG      30.09R
TEXARKANA      PTCLDY    59  45  59 S14       30.05F
EL DORADO      CLEAR     56  43  61 S9        30.09S
DE QUEEN       PTCLDY    46  43  89 E3        30.03S
$$

ARZ056-057-069-290800-
SOUTHEAST ARKANSAS

CITY           SKY/WX    TMP DP  RH WIND       PRES   REMARKS
PINE BLUFF     CLEAR     58  41  53 SW15G24   30.06R
STUTTGART      CLEAR     57  41  54 S15       30.05R
MONTICELLO     LGT RAIN  59  40  49 S14G21    30.09S

$$




USA.gov is the U.S. government's official web portal to all federal, state and local government web resources and services.